Regional Weather Roundup
Issued by NWS

Home | Current Version | Previous Version | Graphics & Text | Print | Product List | Glossary On
Versions: 1 2 3 4 5 6 7 8 9 10 11 12 13 14 15 16 17 18 19 20 21 22 23 24 25 26 27 28 29 30 31 32 33 34 35 36 37 38 39 40 41 42 43 44 45 46 47 48 49 50
000
ASUS43 KLOT 260504
RWRIL

ILLINOIS REGIONAL WEATHER ROUNDUP
NATIONAL WEATHER SERVICE CHICAGO/ROMEOVILLE IL
1200 AM CDT TUE SEP 26 2017

NOTE: "FAIR" INDICATES FEW OR NO CLOUDS BELOW 12,000 FEET WITH NO
SIGNIFICANT WEATHER AND/OR OBSTRUCTIONS TO VISIBILITY.

* THESE STATIONS ARE NOT UNDER NWS QUALITY CONTROL. THEY ALSO MAY NOT
  REPORT WEATHER SUCH AS PRECIPITATION OR FOG.

ILZ001-002-007-009-015-016-024-260600-
NORTHWEST ILLINOIS

CITY           SKY/WX    TMP DP  RH WIND       PRES   REMARKS
MOLINE         CLOUDY    72  67  84 CALM      29.90S
STERLING*      CLEAR     67  61  81 CALM      29.93S
SAVANNA*       CLOUDY    72  64  78 N5        29.93R
$$

ILZ003-004-008-010-011-017-018-260600-
NORTH CENTRAL ILLINOIS

CITY           SKY/WX    TMP DP  RH WIND       PRES   REMARKS
ROCKFORD       PTCLDY    70  60  70 S5        29.94S
FREEPORT*      MOCLDY    64  60  86 SE3       29.95S
ROCHELLE*      CLEAR     69  60  72 SE5       29.94S
DE KALB*       CLEAR     71  61  70 S3        29.96S
PERU*          CLEAR     72  58  62 S7        29.94R
$$

ILZ005-006-012>014-019>023-260600-
NORTHEAST ILLINOIS

CITY           SKY/WX    TMP DP  RH WIND       PRES   REMARKS
CHICAGO-OHARE  PTCLDY    75  58  55 S5        29.93S
CHICAGO-MIDWAY PTCLDY    79  57  46 S5        29.94S HX  80
AURORA         CLEAR     73  60  63 S6        29.94F
LANSING*       CLEAR     71  60  67 CALM      29.95S
JOLIET*        CLEAR     69  63  80 CALM      29.94S
WAUKEGAN       CLEAR     66  62  87 CALM      29.93S
DUPAGE AIRPORT MOCLDY    73  60  63 S5        29.94S
KANKAKEE*      CLEAR     68  61  78 SE3       29.96S
WHEELING       CLEAR     70  62  76 CALM      29.94F
MORRIS*        CLEAR     72  60  66 S3        29.93S
ROMEOVILLE*    CLEAR     71  59  66 S7        29.95S
NORTHERLY ISL    N/A     72  63  73 E1          N/A
$$

LMZ740>746-260600-
SOUTHERN LAKE MICHIGAN

STATION/POSITION SKY/WX   TEMP    WIND        PRES    VSBY  WAVE
                          AIR SEA DIR/SP/G                  HT/PER
                          (F)     (DEG/KT/KT) (MB)    (MI)  (FT/S)
SOUTHERN BUOY              74 71  110/  6/  8 1013.8          0
WILMETTE HARBOR            72 71  180/  6/  8   N/A           1
HARRISON CRIB              78     190/  8/  9   N/A
BURNHAM HARBOR             72                   N/A
CALUMET HARBOR             78     180/  4/  5 1013.3F
BURNS HARBOR               77     150/  3/  4 1014.6S
MICHIGAN CITY              74     130/  8/  9   N/A
MICHIGAN CITY 6N           73 72  150/  6/  6   N/A           0
ST. JOSEPH                 75 72  180/  6/  6 1014.0S         1
$$

ILZ025>027-034>036-040-047-049-050-058-095>099-260600-
WEST-CENTRAL ILLINOIS

CITY           SKY/WX    TMP DP  RH WIND       PRES   REMARKS
QUINCY         CLOUDY    73  66  78 S3        29.93R
GALESBURG*     CLEAR     66  62  86 CALM      29.94S
MACOMB*        CLOUDY    68  65  89 CALM      29.95S
JACKSONVILLE*  CLEAR     76  62  61 S7        29.94R
PITTSFIELD*    CLEAR     72  64  78 CALM      29.94S
$$

ILZ028>032-037-038-041>044-048-051>054-059>061-260600-
CENTRAL ILLINOIS

CITY           SKY/WX    TMP DP  RH WIND       PRES   REMARKS
PONTIAC        CLEAR     66  63  90 SE6       29.95S
BLOOMINGTON    CLEAR     71  62  73 S5        29.97S
DECATUR        CLEAR     72  61  68 S3        29.96S
PEORIA         CLEAR     72  63  73 CALM      29.93S
LACON*         PTCLDY    72  61  68 SE5       29.93S
LINCOLN*       PTCLDY    69  64  83 CALM      29.94S
SPRINGFIELD    PTCLDY    79  63  57 S8        29.94S HX  80
TAYLORVILLE    CLEAR     69  62  78 S5        29.96S
$$

ILZ033-039-045-046-055>057-062-063-260600-
EAST-CENTRAL ILLINOIS

CITY           SKY/WX    TMP DP  RH WIND       PRES   REMARKS
CHAMPAIGN      CLEAR     73  59  61 S3        29.97R
RANTOUL*       PTCLDY    73  63  72 CALM      29.96S
MATTOON        CLEAR     74  63  68 S5        29.96S
PARIS*         CLEAR     70  64  81 SE3       29.98S
$$

ILZ079-100>102-260600-
SOUTHWEST ILLINOIS

CITY           SKY/WX    TMP DP  RH WIND       PRES   REMARKS
ALTON          CLEAR     72  64  74 S5        29.96S
BELLEVILLE     CLEAR     68  63  83 CALM      29.95R
CAHOKIA*       CLEAR     73  62  68 CALM      29.95S
SPARTA*        CLEAR     75  63  64 S3        29.98R
$$

ILZ064>066-069>071-074>076-080>082-084>086-088>090-092>094-260600-
SOUTH-CENTRAL ILLINOIS

CITY           SKY/WX    TMP DP  RH WIND       PRES   REMARKS
CARBONDALE     CLEAR     68  67  96 CALM      29.96S
CAIRO*         CLEAR     67  67 100 CALM      29.96R FOG
EFFINGHAM*     CLEAR     69  63  79 CALM      29.98S
MARION         CLEAR     70  70 100 CALM      29.97S
MT. VERNON       N/A     66  65  96 CALM      29.97S
CENTRALIA*     CLEAR     68  64  86 CALM      29.96S
SALEM*         CLEAR     70  63  79 CALM      29.96S
METROPOLIS*    CLEAR     65  64  96 CALM      29.97S FOG
$$

ILZ067-068-072-073-078-083-087-091-260600-
SOUTHEAST ILLINOIS

CITY           SKY/WX    TMP DP  RH WIND       PRES   REMARKS
LAWRENCEVILLE  CLEAR     73  67  81 CALM      29.97S
FLORA*         CLEAR     71  64  78 CALM      29.97S
FAIRFIELD*     CLEAR     68  62  80 CALM      29.95S
HARRISBURG*    CLEAR     68  64  86 CALM      29.97S
ROBINSON*      CLEAR     65  64  96 CALM      29.98S
CARMI*         CLEAR     66  64  93 CALM      29.96S
$$

ABBREVIATIONS USED IN REMARKS
   TC - TEMPERATURE IN CELSIUS
  WCI - WIND CHILL INDEX
   HX - HEAT INDEX
  VSB - VISIBILITY
$$





USA.gov is the U.S. government's official web portal to all federal, state and local government web resources and services.